Hourly Data Report for May 12, 2021

TOBERMORY RCS
ONTARIO
Current Station Operator: ECCC - MSC

45°14'00.000" N
81°38'00.000" W
213.50 m
6128330
71767
TTR

Download Data

Hourly Data (May 2021)
Hourly Data Report for May 12, 2021
TIME
LST
Temp Definition
°C
Dew Point Definition
°C
Rel Hum Definition
%
Precip. Amount Definition
mm

Wind Dir Definition
10's deg

Wind Spd Definition
km/h
Visibility Definition
km
Stn Press Definition
kPa
Hmdx Definition


Wind Chill Definition


Weather Definition


00:00 5.9 2.4 78 0.0 31 11   99.92     LegendNANA
01:00 6.0 2.4 77 0.0 31 10   99.93     LegendNANA
02:00 6.7 1.6 70 0.0 32 13   99.94     LegendNANA
03:00 5.7 1.7 76 0.0 32 10   99.96     LegendNANA
04:00 5.2 1.4 77 0.0 32 8   100.02     LegendNANA
05:00 5.5 1.4 75 0.0 33 9   100.06     LegendNANA
06:00 5.2 2.0 80 0.0 29 7   100.13     LegendNANA
07:00 7.5 2.7 72 0.0 31 7   100.20     LegendNANA
08:00 10.0 0.1 50 0.0 34 9   100.25     LegendNANA
09:00 11.0 3.9 61 0.0 29 9   100.27     LegendNANA
10:00 12.6 -0.3 41 0.0 31 10   100.26     LegendNANA
11:00 11.7 3.6 57 0.0 29 12   100.27     LegendNANA
12:00 10.5 2.8 59 0.0 30 14   100.28     LegendNANA
13:00 10.8 2.7 57 0.0 30 16   100.25     LegendNANA
14:00 12.2 0.7 45 0.0 31 14   100.21     LegendNANA
15:00 13.1 1.8 46 0.0 28 15   100.18     LegendNANA
16:00 12.7 -0.3 41 0.0 29 17   100.15     LegendNANA
17:00 11.7 -0.6 43 0.0 29 19   100.13     LegendNANA
18:00 11.0 -0.6 45 0.0 29 18   100.12     LegendNANA
19:00 9.3 -0.4 51 0.0 29 17   100.10     LegendNANA
20:00 7.7 0.4 60 0.0 30 13   100.10     LegendNANA
21:00 7.7 0.3 59 0.0 30 14   100.11     LegendNANA
22:00 8.4 0.2 56 0.0 30 14   100.12     LegendNANA
23:00 8.7 -1.5 49 0.0 30 15   100.09     LegendNANA

Notes on Data Quality.

Legend

  • E = Estimated
  • M = Missing
  • NA = Not Available*
  • [empty] = Indicates an unobserved value
Date modified: